Dewpoint
73 74 74 74 75 76 75 76 76 77 73 72 65 66 74 76 76 77 75 73 74 75 76 74 75 75 73 73 73 71 71 70 68 69 72 72 73 73 72 74 75 75 73
72 74 74 74 74 74 75 75 77 77 77 75 73 74 75 76 75 75 75 73 74 74 75 75 74 71 76 76 73 73 73 73 71 69 71 70 70 71 75 76 73 70 72
73 72 72 73 74 74 75 75 76 76 76 74 75 76 76 75 76 75 75 75 74 74 75 75 75 75 75 73 76 74 72 72 72 71 69 73 71 71 71 74 76 76 74
70 73 72 72 72 73 75 75 75 76 76 75 76 76 75 75 75 75 76 75 75 74 75 75 75 75 75 76 74 75 73 74 73 72 71 69 70 71 74 73 71 70 70
67 68 71 72 74 75 76 76 76 77 75 76 76 75 76 74 72 74 74 75 75 74 75 75 75 74 72 73 73 75 75 74 72 71 69 71 70 71 70 70 69 72 71
65 65 67 69 71 72 74 76 76 76 76 76 75 75 74 71 65 64 72 73 75 75 74 75 75 73 72 67 67 67 71 75 74 74 72 69 71 73 73 72 71 69 67
63 63 65 66 67 68 70 72 75 75 76 75 74 75 75 75 66 63 65 72 74 74 75 74 72 69 70 73 68 66 66 66 67 71 71 72 73 73 75 74 73 73 71
61 61 62 63 63 65 66 68 69 71 75 76 75 75 75 75 66 64 64 70 71 72 74 75 75 74 73 75 75 75 73 73 72 69 70 70 71 73 74 73 73 74 74
59 61 62 63 63 63 63 64 67 68 70 74 74 75 75 75 65 62 65 71 71 71 71 73 73 74 71 66 72 73 74 74 69 67 68 67 66 66 68 73 71 69 67
57 59 61 62 63 63 64 64 65 67 68 70 71 74 71 74 67 62 64 72 71 71 72 72 66 69 64 62 71 73 71 71 72 73 73 69 67 69 65 70 72 69 68
56 57 59 61 62 63 64 65 65 64 66 68 69 72 74 73 73 62 60 73 73 71 71 70 71 62 59 59 60 71 71 72 71 73 72 72 71 71 73 72 72 70 68
57 57 59 60 58 57 63 63 63 65 66 67 68 69 70 74 66 66 60 60 66 73 73 73 72 59 55 55 58 60 60 64 70 70 70 70 69 67 67 68 72 73 72
56 56 57 58 59 60 61 61 59 60 65 64 64 64 66 65 69 61 59 58 59 64 68 68 59 59 57 59 55 56 57 65 66 67 68 69 69 69 70 69 69 75 76
55 56 55 55 55 57 55 54 56 55 55 57 59 60 60 61 64 68 65 63 62 65 65 68 64 61 61 64 65 67 63 67 67 67 68 69 69 69 69 69 66 64 65
52 53 53 51 53 54 56 55 54 57 54 53 55 55 55 56 57 54 55 60 63 60 56 61 67 69 70 72 72 71 71 69 69 69 69 70 70 70 69 69 67 65 66
47 47 49 49 50 50 50 51 49 46 46 46 46 50 55 51 48 47 45 45 45 48 56 61 66 68 69 70 73 72 71 70 71 71 71 70 70 69 69 69 69 67 66
45 45 46 46 48 48 50 50 49 49 46 44 43 45 46 49 46 45 43 43 44 48 57 61 65 67 68 70 71 71 71 72 73 72 73 71 70 70 69 69 68 68 68
46 46 44 46 46 47 48 48 48 49 49 51 48 46 46 45 45 43 43 46 60 55 61 62 64 66 67 67 68 71 71 73 72 73 74 72 71 71 71 69 69 68 68
43 40 42 41 43 46 47 48 48 48 48 48 50 48 48 44 43 44 43 59 59 60 62 63 65 66 67 69 70 72 72 71 72 73 72 72 73 73 72 71 71 64 65
40 43 42 40 42 42 44 46 46 47 47 48 49 49 51 51 54 56 59 60 59 62 60 61 62 62 63 64 70 72 71 72 73 73 72 72 72 73 72 71 72 71 71
37 38 41 40 41 42 42 43 43 44 46 46 46 48 45 49 50 52 54 55 58 57 55 55 55 56 57 59 61 66 71 72 73 73 71 71 72 72 72 72 72 71 72
35 35 36 36 38 40 41 42 43 43 43 43 44 45 44 48 50 51 53 55 55 54 53 53 52 52 54 55 55 57 60 66 67 67 67 67 67 69 71 71 71 71 71
35 35 35 36 36 37 38 39 38 39 40 40 43 45 46 46 48 49 50 51 51 50 50 49 49 48 49 51 53 54 54 57 59 61 62 63 64 66 67 67 68 69 70
34 34 35 35 36 36 37 37 37 37 39 39 41 43 44 45 47 48 48 49 49 47 47 46 45 45 45 44 46 47 48 51 50 52 56 60 62 62 64 65 66 65 65
35 36 37 37 36 36 36 36 36 36 37 38 39 40 42 44 45 45 46 46 45 44 43 43 43 42 42 41 41 41 40 35 38 43 52 58 60 62 63 63 62 61 61
38 38 40 39 37 37 36 36 36 36 37 37 39 40 40 41 42 43 43 43 42 42 41 41 40 39 39 39 38 35 33 33 39 39 49 58 59 59 59 58 58 58 57
Lifted_Index
-7 -7 -6 -6 -6 -6 -6 -5 -5 -4 -4 -2 -1 -1 -3 -5 -5 -5 -4 -4 -4 -4 -4 -4 -4 -4 -5 -5 -5 -5 -4 -3 -3 -3 -4 -4 -4 -4 -4 -5 -5 -5 -5
-6 -6 -6 -6 -6 -7 -6 -6 -6 -5 -4 -3 -3 -3 -4 -5 -5 -5 -5 -4 -4 -4 -4 -4 -4 -4 -5 -5 -5 -5 -4 -4 -4 -3 -4 -4 -3 -4 -5 -5 -6 -6 -5
-5 -6 -6 -6 -6 -6 -7 -6 -6 -6 -5 -5 -5 -5 -5 -6 -6 -5 -5 -5 -4 -5 -5 -5 -4 -4 -4 -5 -5 -5 -5 -4 -4 -4 -4 -4 -3 -4 -5 -5 -6 -5 -5
-3 -4 -4 -5 -6 -6 -7 -7 -6 -6 -6 -6 -6 -6 -6 -6 -6 -6 -5 -5 -5 -5 -5 -5 -5 -5 -5 -5 -5 -5 -5 -5 -4 -4 -4 -4 -4 -4 -4 -5 -5 -5 -4
-2 -2 -3 -3 -5 -6 -6 -6 -6 -6 -6 -6 -6 -6 -6 -6 -6 -5 -5 -5 -5 -5 -5 -5 -5 -5 -5 -5 -4 -4 -4 -4 -5 -4 -4 -4 -3 -4 -4 -4 -4 -4 -3
-2 -2 -2 -2 -3 -5 -5 -6 -6 -6 -6 -6 -6 -6 -6 -6 -5 -4 -4 -5 -5 -5 -5 -5 -5 -5 -5 -4 -4 -4 -4 -4 -4 -4 -4 -4 -3 -4 -4 -4 -4 -4 -3
-2 -2 -2 -2 -3 -4 -4 -4 -5 -5 -5 -6 -6 -6 -6 -6 -5 -4 -4 -4 -5 -5 -5 -5 -5 -5 -5 -5 -4 -4 -4 -3 -3 -3 -4 -4 -4 -4 -4 -4 -4 -4 -4
0 -0 -1 -1 -2 -3 -3 -3 -3 -4 -5 -5 -6 -6 -6 -6 -6 -5 -4 -4 -4 -4 -5 -5 -5 -5 -5 -5 -5 -5 -5 -4 -4 -4 -3 -3 -3 -3 -4 -4 -4 -4 -4
3 3 2 1 0 -1 -1 -2 -2 -3 -3 -4 -5 -6 -6 -6 -6 -5 -5 -4 -4 -4 -4 -5 -5 -5 -5 -5 -5 -5 -5 -5 -5 -4 -4 -4 -3 -3 -3 -4 -3 -3 -3
5 5 4 4 3 2 1 -0 -1 -1 -2 -3 -4 -5 -6 -6 -6 -5 -5 -5 -5 -4 -4 -4 -4 -4 -4 -4 -4 -4 -5 -5 -5 -4 -4 -4 -4 -4 -4 -4 -3 -3 -2
7 6 6 5 5 4 3 2 1 0 -1 -2 -3 -4 -5 -6 -5 -5 -5 -5 -5 -5 -4 -4 -4 -4 -4 -3 -3 -3 -4 -4 -4 -4 -4 -4 -4 -4 -4 -4 -3 -3 -3
7 7 6 6 5 5 4 4 3 2 0 -1 -2 -3 -4 -5 -5 -5 -4 -4 -5 -4 -4 -4 -4 -4 -4 -3 -3 -3 -3 -3 -3 -3 -4 -4 -4 -3 -3 -3 -3 -3 -4
8 7 7 7 6 5 5 5 5 4 2 1 0 -0 -1 -2 -3 -4 -4 -4 -4 -4 -4 -4 -4 -4 -4 -4 -4 -3 -3 -2 -2 -2 -3 -3 -4 -3 -3 -2 -2 -3 -3
8 8 7 7 7 6 6 6 5 5 4 4 4 3 3 2 -0 -2 -3 -4 -4 -4 -4 -4 -4 -3 -4 -4 -4 -4 -4 -3 -3 -2 -2 -3 -3 -4 -3 -3 -2 -2 -2
9 8 8 8 8 7 6 6 6 6 6 6 6 6 6 5 4 3 0 -1 -2 -2 -3 -4 -4 -3 -4 -4 -5 -4 -4 -4 -4 -3 -3 -3 -3 -3 -3 -3 -2 -2 -1
10 10 9 9 8 8 7 7 7 8 8 8 8 8 8 7 7 6 5 3 2 1 -0 -2 -2 -3 -4 -4 -5 -5 -5 -5 -4 -4 -4 -4 -3 -3 -3 -3 -3 -3 -3
11 11 10 10 9 9 8 8 8 8 8 8 8 8 8 8 8 7 7 6 5 4 3 1 -0 -2 -3 -4 -4 -5 -5 -5 -5 -5 -5 -4 -4 -4 -4 -4 -3 -3 -3
11 11 11 11 10 10 9 9 9 8 8 8 8 8 8 8 7 7 6 5 5 4 4 3 1 -1 -2 -3 -4 -5 -5 -5 -5 -5 -5 -5 -4 -5 -5 -4 -4 -4 -4
11 11 11 11 11 10 10 9 9 9 9 8 8 8 7 7 7 6 5 5 5 4 4 3 2 1 -1 -2 -4 -5 -5 -5 -5 -5 -5 -5 -5 -5 -5 -5 -5 -5 -4
12 12 12 12 11 11 10 10 10 10 10 9 9 8 8 7 7 6 6 5 5 5 5 5 4 3 1 -1 -3 -4 -4 -5 -5 -5 -5 -4 -4 -4 -5 -5 -5 -5 -5
12 12 12 12 12 11 11 10 10 10 10 10 10 9 8 8 7 7 6 7 7 7 8 8 7 5 3 1 -1 -3 -4 -4 -5 -4 -4 -3 -3 -3 -4 -4 -5 -5 -5
13 13 13 13 12 12 12 11 11 11 11 11 11 10 9 8 8 7 7 8 8 9 9 9 8 7 5 3 1 -2 -3 -4 -3 -3 -2 -2 -2 -2 -2 -3 -4 -4 -5
12 12 12 12 12 12 12 12 12 11 11 11 12 11 10 9 8 8 8 8 9 10 10 9 8 7 6 4 2 -0 -2 -2 -2 -2 -1 -1 -1 -0 -1 -2 -2 -3 -4
11 11 11 12 12 12 12 12 12 12 12 12 12 12 11 10 10 9 9 9 9 10 9 9 8 7 6 4 3 1 -1 -2 -2 -2 -1 -1 -0 -0 -1 -1 -1 -2 -2
9 10 10 11 11 12 12 12 12 12 13 13 12 12 11 11 11 11 10 10 10 9 9 8 7 7 6 5 3 1 -0 -1 -1 -1 -1 -1 -0 -0 -0 -1 -1 -1 -1
8 9 10 10 11 12 12 12 13 13 13 13 13 12 11 11 11 11 11 10 10 9 9 8 7 6 5 4 3 1 0 -0 -1 -1 -1 -1 -0 -0 -0 -0 -0 -0 -1